When you browse on this site, cookies collect data to enhance your experience and personalize the content and advertising you see.
Visit our Privacy Policy to learn more. By continuing to use the site, you agree to this use of cookies and data.
EN

Hourly Weather Dolina

Today, 8 August, Saturday

Time Temperature Precipitation Wind Pressure Humidity
00:00 +19°C° 0 mm 2 mps 755 mmHg 93%
01:00 +18°C° 0 mm 2 mps 755 mmHg 93%
02:00 +18°C° 0 mm 2 mps 755 mmHg 94%
03:00 +18°C° 0 mm 2 mps 755 mmHg 94%
04:00 +18°C° 0 mm 1 mps 755 mmHg 93%
05:00 +18°C° 0 mm 1 mps 755 mmHg 93%
06:00 +19°C° 0 mm 2 mps 755 mmHg 87%
07:00 +20°C° 0 mm 2 mps 755 mmHg 81%
08:00 +23°C° 0 mm 2 mps 755 mmHg 75%
09:00 +23°C° 0.1 mm 2 mps 755 mmHg 75%
10:00 +23°C° 0.1 mm 2 mps 755 mmHg 76%
11:00 +23°C° 0.1 mm 2 mps 755 mmHg 77%
12:00 +23°C° 0 mm 2 mps 754 mmHg 75%
13:00 +24°C° 0 mm 2 mps 754 mmHg 73%
14:00 +24°C° 0 mm 2 mps 754 mmHg 71%
15:00 +24°C° 0 mm 2 mps 753 mmHg 69%
16:00 +25°C° 0 mm 2 mps 753 mmHg 66%
17:00 +25°C° 0 mm 2 mps 753 mmHg 63%
18:00 +24°C° 0 mm 2 mps 752 mmHg 70%
19:00 +21°C° 0 mm 2 mps 752 mmHg 76%
20:00 +20°C° 0 mm 2 mps 752 mmHg 83%
21:00 +19°C° 0 mm 2 mps 752 mmHg 85%
22:00 +18°C° 0 mm 2 mps 752 mmHg 87%
23:00 +18°C° 0 mm 2 mps 752 mmHg 90%

Tomorrow, 9 August, Sunday

Time Temperature Precipitation Wind Pressure Humidity
00:00 +17°C° 0 mm 2 mps 752 mmHg 90%
01:00 +17°C° 0 mm 2 mps 752 mmHg 91%
02:00 +17°C° 0 mm 2 mps 752 mmHg 91%
03:00 +18°C° 0 mm 1 mps 752 mmHg 92%
04:00 +16°C° 0 mm 1 mps 752 mmHg 93%
05:00 +16°C° 0 mm 1 mps 752 mmHg 93%
06:00 +18°C° 0 mm 2 mps 752 mmHg 88%
07:00 +20°C° 0 mm 2 mps 752 mmHg 82%
08:00 +21°C° 0 mm 2 mps 752 mmHg 76%
09:00 +24°C° 0.1 mm 2 mps 752 mmHg 71%
10:00 +25°C° 0.1 mm 2 mps 751 mmHg 66%
11:00 +26°C° 0.1 mm 2 mps 751 mmHg 60%
12:00 +26°C° 0.7 mm 2 mps 751 mmHg 62%
13:00 +26°C° 0.7 mm 3 mps 751 mmHg 63%
14:00 +26°C° 0.7 mm 3 mps 750 mmHg 65%
15:00 +26°C° 0.3 mm 3 mps 750 mmHg 66%
16:00 +26°C° 0.3 mm 3 mps 750 mmHg 67%
17:00 +26°C° 0.3 mm 2 mps 750 mmHg 69%
18:00 +24°C° 0 mm 2 mps 750 mmHg 74%
19:00 +23°C° 0 mm 2 mps 750 mmHg 80%
20:00 +20°C° 0 mm 2 mps 750 mmHg 85%
21:00 +20°C° 0.2 mm 2 mps 750 mmHg 87%
22:00 +19°C° 0.2 mm 2 mps 750 mmHg 88%
23:00 +19°C° 0.2 mm 2 mps 750 mmHg 90%

Day after tomorrow, 10 August, Monday

Time Temperature Precipitation Wind Pressure Humidity
00:00 +18°C° 0 mm 2 mps 750 mmHg 91%
01:00 +18°C° 0 mm 2 mps 750 mmHg 91%
02:00 +18°C° 0 mm 2 mps 749 mmHg 92%
03:00 +18°C° 0 mm 2 mps 749 mmHg 93%
04:00 +17°C° 0 mm 2 mps 749 mmHg 93%
05:00 +17°C° 0 mm 2 mps 749 mmHg 93%
06:00 +19°C° 0 mm 2 mps 749 mmHg 89%
07:00 +20°C° 0 mm 2 mps 749 mmHg 85%
08:00 +21°C° 0 mm 2 mps 750 mmHg 81%
09:00 +23°C° 0 mm 2 mps 750 mmHg 75%
10:00 +25°C° 0 mm 3 mps 750 mmHg 69%
11:00 +26°C° 0 mm 3 mps 750 mmHg 62%
12:00 +27°C° 0 mm 3 mps 749 mmHg 60%
13:00 +27°C° 0 mm 3 mps 749 mmHg 57%
14:00 +28°C° 0 mm 3 mps 749 mmHg 54%
15:00 +27°C° 0.2 mm 3 mps 749 mmHg 58%
16:00 +27°C° 0.2 mm 3 mps 748 mmHg 62%
17:00 +26°C° 0.2 mm 3 mps 748 mmHg 66%
18:00 +25°C° 0 mm 2 mps 748 mmHg 71%
19:00 +23°C° 0 mm 2 mps 748 mmHg 76%
20:00 +20°C° 0 mm 2 mps 748 mmHg 81%
21:00 +21°C° 0 mm 1 mps 748 mmHg 82%
22:00 +20°C° 0 mm 1 mps 748 mmHg 84%
23:00 +20°C° 0 mm 1 mps 748 mmHg 86%

11 August, Tuesday

Time Temperature Precipitation Wind Pressure Humidity
00:00 +19°C° 0 mm 1 mps 748 mmHg 87%
01:00 +19°C° 0 mm 1 mps 748 mmHg 87%
02:00 +18°C° 0 mm 2 mps 748 mmHg 88%
03:00 +17°C° 0 mm 2 mps 748 mmHg 90%
04:00 +17°C° 0 mm 2 mps 748 mmHg 91%
05:00 +17°C° 0 mm 2 mps 748 mmHg 92%
06:00 +18°C° 0 mm 2 mps 748 mmHg 88%
07:00 +20°C° 0 mm 2 mps 748 mmHg 84%
08:00 +21°C° 0 mm 2 mps 748 mmHg 80%
09:00 +22°C° 0.4 mm 3 mps 748 mmHg 76%
10:00 +24°C° 0.4 mm 3 mps 748 mmHg 72%
11:00 +25°C° 0.4 mm 3 mps 748 mmHg 67%
12:00 +26°C° 0.7 mm 3 mps 748 mmHg 67%
13:00 +26°C° 0.7 mm 4 mps 748 mmHg 66%
14:00 +26°C° 0.7 mm 4 mps 748 mmHg 65%
15:00 +25°C° 0.4 mm 4 mps 748 mmHg 68%
16:00 +23°C° 0.4 mm 4 mps 748 mmHg 71%
17:00 +22°C° 0.4 mm 5 mps 748 mmHg 74%
18:00 +21°C° 0 mm 4 mps 748 mmHg 77%
19:00 +19°C° 0 mm 4 mps 748 mmHg 79%
20:00 +17°C° 0 mm 4 mps 749 mmHg 81%
21:00 +15°C° 0 mm 4 mps 749 mmHg 83%
22:00 +14°C° 0 mm 4 mps 749 mmHg 84%
23:00 +13°C° 0 mm 3 mps 749 mmHg 86%

12 August, Wednesday

Time Temperature Precipitation Wind Pressure Humidity
00:00 +12°C° 0 mm 3 mps 749 mmHg 88%
01:00 +12°C° 0 mm 3 mps 750 mmHg 89%
02:00 +11°C° 0 mm 3 mps 750 mmHg 91%
03:00 +11°C° 0 mm 3 mps 750 mmHg 92%
04:00 +10°C° 0 mm 3 mps 750 mmHg 93%
05:00 +10°C° 0 mm 3 mps 750 mmHg 94%
06:00 +11°C° 0 mm 3 mps 750 mmHg 89%
07:00 +13°C° 0 mm 4 mps 750 mmHg 84%
08:00 +14°C° 0 mm 4 mps 751 mmHg 80%
09:00 +15°C° 0 mm 4 mps 751 mmHg 74%
10:00 +17°C° 0 mm 4 mps 751 mmHg 69%
11:00 +19°C° 0 mm 4 mps 751 mmHg 63%
12:00 +19°C° 0.1 mm 4 mps 751 mmHg 62%
13:00 +20°C° 0.1 mm 4 mps 751 mmHg 61%
14:00 +20°C° 0.1 mm 4 mps 751 mmHg 59%
15:00 +20°C° 0.1 mm 4 mps 751 mmHg 61%
16:00 +19°C° 0.1 mm 4 mps 751 mmHg 63%
17:00 +19°C° 0.1 mm 4 mps 751 mmHg 65%
18:00 +18°C° 0 mm 4 mps 751 mmHg 71%
19:00 +16°C° 0 mm 3 mps 751 mmHg 76%
20:00 +14°C° 0 mm 3 mps 751 mmHg 82%
21:00 +13°C° 0 mm 3 mps 752 mmHg 84%
22:00 +12°C° 0 mm 3 mps 752 mmHg 85%
23:00 +11°C° 0 mm 3 mps 752 mmHg 87%

13 August, Thursday

Time Temperature Precipitation Wind Pressure Humidity
00:00 +10°C° 0 mm 3 mps 752 mmHg 87%
01:00 +10°C° 0 mm 2 mps 752 mmHg 88%
02:00 +9°C° 0 mm 2 mps 752 mmHg 89%
03:00 +9°C° 0 mm 2 mps 752 mmHg 89%
04:00 +8°C° 0 mm 2 mps 752 mmHg 90%
05:00 +8°C° 0 mm 2 mps 752 mmHg 90%
06:00 +10°C° 0 mm 2 mps 753 mmHg 83%
07:00 +13°C° 0 mm 2 mps 753 mmHg 75%
08:00 +15°C° 0 mm 2 mps 753 mmHg 68%
09:00 +16°C° 0 mm 2 mps 753 mmHg 63%
10:00 +17°C° 0 mm 2 mps 752 mmHg 58%
11:00 +18°C° 0 mm 2 mps 752 mmHg 53%
12:00 +18°C° 0 mm 2 mps 752 mmHg 53%
13:00 +18°C° 0 mm 2 mps 752 mmHg 54%
14:00 +19°C° 0 mm 2 mps 752 mmHg 54%
15:00 +19°C° 0 mm 2 mps 752 mmHg 56%
16:00 +19°C° 0 mm 2 mps 751 mmHg 57%
17:00 +18°C° 0 mm 2 mps 751 mmHg 59%
18:00 +17°C° 0 mm 2 mps 751 mmHg 64%
19:00 +16°C° 0 mm 2 mps 751 mmHg 68%
20:00 +15°C° 0 mm 1 mps 752 mmHg 73%
21:00 +14°C° 0 mm 1 mps 752 mmHg 74%
22:00 +14°C° 0 mm 1 mps 752 mmHg 75%
23:00 +13°C° 0 mm 1 mps 752 mmHg 76%
Show more